Regional Weather Roundup
Issued by NWS

Home | Current Version | Previous Version | Text Only | Print | Product List | Glossary Off
Versions: 1 2 3 4 5 6 7 8 9 10 11 12 13 14 15 16 17 18 19 20 21 22 23 24 25 26 27 28 29 30 31 32 33 34 35 36 37 38 39 40 41 42 43 44 45 46 47 48 49

000
ASUS45 KSLC 010410
RWRUT
UTAH REGIONAL WEATHER ROUNDUP
NATIONAL WEATHER SERVICE SALT LAKE CITY UT
1000 PM MDT FRI JUL 31 2015

UTZ001>011-023>025-010500-

NORTHERN UTAH

CITY           SKY/WX    TMP DP  RH WIND       PRES   REMARKS
BRIGHAM CITY   CLEAR     78  40  24 CALM      30.13R
HILL AFB       CLEAR     76  33  21 E9        30.16R
LOGAN          CLEAR     72  41  32 CALM      30.15R
OGDEN          CLEAR     77  37  23 SE7       30.13R
PROVO AIRPORT  PTCLDY    73  45  35 N7        30.14R
SALT LAKE CITY PTCLDY    80  29  15 SE3       30.11R
VERNAL         PTCLDY    74  33  22 NW6       30.16R
WENDOVER       PTCLDY    82  28  14 N5        30.13R
HEBER CITY     PTCLDY    63  37  39 E6        30.23R
WEST JORDAN    CLEAR     73  28  19 W7        30.15S

$$

UTZ012>022-026-027-010500-

SOUTHERN/CENTRAL UTAH

CITY           SKY/WX    TMP DP  RH WIND       PRES   REMARKS
BLANDING       CLOUDY    73  51  46 E3        30.37S
BRYCE CANYON   MOCLDY    60  45  57 W5        30.41R
CEDAR CITY     CLOUDY    77  47  34 SW7       30.23R
DELTA          PTCLDY    81  21  10 NE6       30.14R
HANKSVILLE     PTCLDY    86  43  22 S7        30.12R
MILFORD        PTCLDY    78  21  12 CALM      30.15R
MOAB/CYNLANDS  CLEAR     86  48  26 S16G23    30.10R
PRICE          PTCLDY    80  15   8 NW9       30.22R
ST GEORGE      PTCLDY    88  52  29 SE13      30.06R
KANAB          CLOUDY    75  52  43 CALM      30.27R

$$

REGIONAL REPORTS     COLORADO/ARIZONA

CITY           SKY/WX    TMP DP  RH WIND       PRES   REMARKS
CRAIG, CO      PTCLDY    60  39  45 CALM      30.24R
GRAND JUNCTION PTCLDY    80  42  25 SE9       30.14R
RIFLE          PTCLDY    77  34  21 S9        30.19R
MONTROSE       MOCLDY    75  47  36 SE16      30.27R
CORTEZ         MOCLDY    65  62  90 CALM      30.31R
PAGE, AZ       CLOUDY    87  48  25 W6        30.12R
GRAND CANYON   CLOUDY    62  54  74 CALM      30.38R
KINGMAN        CLOUDY    85  52  32 SE9       30.11R
FLAGSTAFF      CLOUDY    62  56  80 SE3       30.41R

$$

REGIONAL REPORTS    NEVADA/IDAHO/WYOMING

CITY           SKY/WX    TMP DP  RH WIND       PRES   REMARKS
LAS VEGAS, NV  CLOUDY    96  53  23 W8        29.91R HX  93
ELY            MOCLDY    72  26  18 SE7       30.26R
ELKO           CLEAR     80  20  10 NE10      30.19R
POCATELLO, ID  CLEAR     71  37  28 E7        30.17R
BURLEY         CLEAR     67  47  48 CALM      30.12R
EVANSTON, WY   PTCLDY    69  24  18 N6        30.37R
ROCK SPRINGS   MOCLDY    73  17  12 NW9       30.30R
KEMMERER       PTCLDY    64  28  25 N5        30.38R

$$



USA.gov is the U.S. government's official web portal to all federal, state and local government web resources and services.